Wind_Speed
25 23 21 17 16 15 15 13 12 11 11 11 9 9 5 6 4 4 4 4 2 2 2 2 7 13 14 12 11 12 13 16 22 23 23 23 23 22 20 20 21 20 19
27 25 23 22 20 18 15 14 13 11 12 13 11 11 9 11 8 7 6 6 5 5 5 5 4 7 10 12 12 13 14 13 15 17 18 20 22 23 24 21 19 20 20
31 27 25 25 24 21 18 16 15 14 13 14 15 14 14 13 13 10 10 9 8 8 8 7 7 6 7 10 11 11 13 15 17 17 15 16 17 19 20 21 20 19 19
35 32 29 26 24 23 21 20 18 16 15 15 15 16 15 16 14 13 12 12 11 11 10 10 9 9 8 9 9 9 11 13 12 12 12 14 14 11 14 15 14 14 17
25 24 26 31 29 27 24 24 21 21 18 18 19 18 18 18 18 16 15 14 14 14 14 12 12 11 10 11 11 10 11 11 12 13 13 12 12 12 13 14 16 17 17
28 29 26 30 15 24 30 28 25 24 24 23 21 21 22 21 20 20 19 16 16 16 16 16 16 16 14 13 13 13 13 13 13 14 14 14 13 16 16 18 19 20 18
29 30 30 30 25 26 28 30 28 26 27 28 26 28 26 24 23 22 22 23 21 21 20 20 20 20 19 19 18 17 16 17 16 16 16 14 16 16 19 18 19 21 20
23 29 32 32 34 35 33 28 29 31 30 30 29 28 29 26 26 26 26 27 27 26 26 25 24 23 22 23 21 21 21 20 20 21 20 17 18 18 21 22 23 23 21
11 12 19 26 35 35 35 34 33 33 32 33 33 33 34 32 31 30 30 30 31 31 29 28 29 29 25 24 28 29 28 24 23 23 25 23 21 21 23 26 25 27 24
18 18 17 15 18 26 35 36 34 35 35 36 37 39 38 37 35 34 34 34 35 34 34 32 31 31 31 32 32 29 32 31 32 30 29 29 26 25 25 26 25 27 27
22 22 21 21 21 20 23 31 35 40 38 35 36 36 37 34 33 33 35 37 37 36 37 36 35 33 32 34 35 37 34 32 35 36 35 33 33 31 29 29 29 30 27
27 28 28 27 26 25 25 24 27 34 37 36 36 35 33 34 35 33 36 38 38 38 37 36 35 36 36 35 36 37 36 35 36 39 39 37 36 36 34 33 33 32 30
30 31 31 32 33 33 32 31 29 29 31 37 40 40 40 39 38 37 37 36 40 40 40 41 40 39 39 40 39 38 36 36 37 40 41 41 39 38 37 36 33 34 34
31 32 33 35 36 37 39 38 37 34 35 34 31 37 43 45 45 44 45 44 42 42 41 41 41 40 40 41 42 42 41 41 40 39 40 40 40 39 38 36 35 32 33
22 25 30 34 38 41 41 42 43 41 39 38 37 36 35 34 35 42 47 50 48 45 42 48 50 45 42 39 40 41 41 41 42 39 39 39 39 38 35 34 34 32 33
25 26 26 27 32 38 42 46 44 46 48 47 42 40 38 36 32 32 37 45 49 51 50 47 48 49 46 43 39 40 39 39 40 41 41 39 36 37 34 32 32 31 32
28 29 29 30 31 33 36 43 49 48 47 52 51 48 45 40 37 36 34 32 34 43 48 49 50 47 45 43 43 42 41 39 39 42 43 36 29 25 27 28 28 29 29
33 35 36 36 37 37 38 41 44 48 52 53 53 56 55 50 46 45 44 39 36 34 33 37 42 43 46 47 45 46 49 46 44 41 42 42 49 36 33 31 26 26 26
35 37 38 39 41 44 45 44 45 47 49 52 54 52 53 57 54 51 50 48 46 41 38 37 36 36 37 43 46 49 52 49 46 46 43 42 43 40 40 36 30 27 27
33 36 38 40 42 45 48 49 48 48 50 51 51 53 54 52 54 57 55 52 49 47 44 40 37 33 37 38 43 42 37 37 38 46 52 49 48 43 37 33 31 31 30
33 34 35 38 41 43 47 50 48 48 49 50 52 51 54 56 54 52 52 53 52 46 48 47 41 36 35 39 39 47 47 39 46 43 46 46 45 35 36 33 32 31 31
35 37 38 39 40 43 45 47 48 47 47 47 48 50 50 54 56 56 55 54 52 49 47 49 47 44 38 39 39 40 49 54 56 46 45 49 46 52 52 30 35 30 25
36 38 39 40 41 42 43 45 47 47 46 46 45 47 49 53 53 55 58 51 47 51 50 46 49 48 44 41 43 41 40 40 42 44 50 46 43 38 33 26 34 19 23
37 39 41 41 39 38 39 41 43 44 46 46 47 45 45 49 53 53 52 54 53 49 51 51 46 48 50 45 39 41 41 39 37 40 40 38 44 41 43 36 32 31 32
36 37 40 36 34 33 33 34 36 39 40 42 45 47 47 48 46 48 51 52 53 52 50 52 53 45 45 50 43 39 40 38 37 38 42 45 42 39 35 32 30 27 30
31 32 38 38 32 30 30 30 31 33 35 38 42 43 46 48 48 48 49 48 50 51 52 50 52 52 47 43 43 39 37 35 35 42 37 33 31 30 30 33 32 34 36
Wind_Direction
214 213 214 212 212 215 211 212 207 223 240 241 249 216 212 238 229 232 255 222 263 262 258 219 217 227 235 255 230 233 248 235 234 238 261 281 295 296 298 298 302 308 313
221 218 217 221 221 219 222 223 223 224 229 250 236 237 259 248 240 226 241 249 243 250 257 255 229 233 242 242 253 259 267 280 281 274 274 278 287 292 293 295 299 301 307
208 216 222 223 230 231 227 231 232 232 234 235 244 245 244 253 258 250 243 249 255 261 262 258 258 249 239 251 256 262 264 261 271 282 285 287 289 289 289 294 296 300 303
203 210 206 225 234 235 238 234 237 239 243 250 251 251 250 253 253 258 263 259 265 266 269 273 267 261 261 259 261 263 264 271 278 284 291 291 282 296 301 310 313 308 309
254 232 233 209 220 225 236 244 244 245 248 255 259 263 264 260 260 261 261 262 257 261 263 264 268 264 261 260 262 264 265 268 277 284 291 290 302 309 308 304 306 311 311
229 235 228 277 244 236 232 238 243 248 255 255 265 265 268 271 274 276 276 269 269 263 264 267 269 271 269 269 267 264 265 268 274 281 285 292 296 293 293 295 300 299 307
232 239 238 241 244 254 236 244 247 248 249 256 263 261 268 270 271 271 272 274 271 270 268 266 269 272 275 270 266 268 269 275 276 276 281 286 285 289 290 295 298 302 310
235 235 237 236 241 250 253 258 253 252 256 258 261 259 265 268 269 268 270 271 270 270 271 270 269 269 274 281 279 270 269 270 276 278 280 279 281 283 287 293 295 301 305
264 262 248 245 243 244 246 247 249 253 253 254 259 262 262 264 267 270 268 269 269 268 267 268 272 274 269 266 273 280 281 277 273 273 278 278 278 279 283 288 296 299 305
265 266 267 269 262 247 240 246 250 254 257 259 262 261 263 263 264 263 266 267 268 268 267 267 266 268 272 276 276 270 270 279 283 283 281 281 281 278 280 284 292 299 304
268 268 268 267 265 263 261 258 256 253 255 257 258 257 257 260 263 265 265 265 266 267 267 266 267 266 265 269 271 272 272 273 272 273 274 275 276 279 282 286 291 295 297
272 270 269 268 265 263 262 263 262 256 256 253 255 256 256 255 255 264 265 263 264 263 263 265 263 265 267 264 262 265 270 273 274 275 274 271 273 278 282 287 290 293 296
270 271 270 269 266 265 262 261 262 261 258 255 253 254 256 258 260 259 263 267 268 264 263 264 263 261 260 263 265 267 266 266 265 267 272 275 277 277 277 277 278 282 288
273 271 269 269 269 267 263 263 261 260 261 259 255 251 254 256 257 261 262 265 267 267 263 268 268 266 265 266 269 271 272 272 272 271 270 273 275 276 277 277 276 276 279
280 279 274 269 265 264 265 261 259 260 261 261 260 259 258 258 261 259 261 263 262 263 263 260 263 266 272 268 267 269 271 270 270 272 272 274 276 276 274 272 273 275 276
285 284 285 284 277 271 266 264 264 259 257 256 258 257 255 258 258 258 259 259 260 261 261 264 264 266 267 269 269 266 265 267 272 272 272 274 276 272 272 269 269 269 271
287 287 288 288 285 284 275 268 265 261 261 259 256 256 256 254 255 255 254 259 265 265 264 264 265 266 267 263 260 267 266 266 265 268 273 268 265 275 269 266 267 268 270
289 289 287 286 283 282 281 277 271 267 261 257 257 256 254 255 256 258 258 256 258 266 269 268 266 264 263 261 258 256 265 266 264 266 269 270 275 259 277 272 266 263 263
292 290 288 286 283 280 277 277 276 272 266 262 257 257 259 258 257 255 259 260 258 263 268 271 276 272 270 263 258 254 253 259 262 263 264 270 268 262 264 263 265 264 264
293 291 290 288 285 281 278 275 272 270 268 264 261 257 255 258 257 256 255 257 261 262 263 267 270 276 273 270 260 247 246 250 258 261 259 263 269 254 255 256 255 255 259
294 290 287 284 282 280 276 273 271 269 266 264 261 258 254 254 257 259 258 256 257 259 260 260 260 267 272 270 267 251 249 253 249 266 262 265 266 256 253 255 252 252 255
305 299 294 290 287 281 276 273 271 268 265 263 261 258 252 249 250 254 256 255 253 254 257 257 257 257 263 267 268 266 259 254 253 265 261 263 265 273 279 253 244 240 248
315 311 308 302 295 288 277 272 270 265 263 261 260 258 253 248 247 251 254 257 256 251 252 257 255 255 255 260 262 262 261 259 254 260 260 264 261 263 275 279 274 272 249
320 319 317 310 300 291 282 275 270 267 263 262 258 257 256 252 247 247 251 252 256 255 252 252 257 255 252 254 259 261 258 257 260 260 256 256 258 268 259 263 256 265 276
320 321 320 317 309 300 290 284 278 273 268 265 262 257 256 256 254 253 253 251 251 253 255 253 252 258 256 252 253 259 259 253 255 259 260 259 262 255 258 264 267 272 277
320 324 328 327 324 313 301 295 289 282 275 270 265 260 256 255 255 255 256 257 256 252 253 255 253 253 258 255 252 255 260 255 256 255 257 248 253 258 258 252 271 269 273
Height
3212 3214 3216 3219 3221 3223 3226 3228 3230 3231 3232 3235 3240 3241 3242 3246 3247 3249 3248 3249 3249 3250 3251 3252 3254 3255 3257 3258 3257 3258 3260 3262 3263 3264 3263 3263 3264 3263 3263 3262 3260 3260 3259
3209 3210 3212 3216 3219 3221 3224 3226 3227 3229 3231 3232 3236 3238 3241 3245 3246 3247 3247 3247 3248 3249 3251 3251 3252 3253 3255 3255 3255 3256 3257 3258 3258 3259 3260 3260 3260 3260 3259 3258 3258 3255 3254
3200 3202 3206 3211 3216 3219 3222 3223 3224 3227 3229 3232 3234 3237 3240 3243 3245 3247 3247 3246 3247 3248 3249 3250 3251 3251 3252 3253 3253 3254 3254 3254 3254 3254 3255 3256 3255 3254 3254 3254 3253 3252 3251
3187 3191 3193 3205 3212 3216 3218 3220 3222 3223 3226 3229 3232 3235 3238 3240 3242 3244 3244 3244 3244 3245 3247 3248 3249 3249 3250 3250 3251 3251 3252 3252 3252 3252 3252 3252 3251 3250 3249 3249 3249 3248 3247
3181 3184 3189 3183 3199 3208 3216 3215 3219 3221 3223 3226 3228 3231 3234 3237 3238 3240 3240 3241 3242 3242 3244 3245 3246 3247 3247 3248 3248 3248 3248 3248 3249 3249 3249 3248 3248 3247 3247 3246 3245 3244 3244
3190 3190 3194 3196 3187 3200 3208 3211 3214 3216 3217 3221 3224 3227 3229 3231 3234 3235 3235 3237 3238 3239 3240 3241 3242 3243 3244 3245 3246 3245 3245 3246 3246 3245 3245 3245 3245 3244 3244 3243 3242 3240 3240
3188 3189 3192 3195 3196 3201 3205 3208 3208 3210 3212 3214 3218 3221 3223 3225 3228 3230 3231 3231 3233 3234 3235 3237 3237 3239 3240 3241 3241 3242 3242 3241 3242 3242 3242 3242 3241 3240 3239 3239 3238 3236 3235
3182 3186 3189 3192 3195 3197 3200 3201 3203 3205 3207 3210 3212 3214 3216 3218 3222 3224 3225 3225 3226 3228 3229 3230 3232 3234 3235 3235 3236 3237 3237 3237 3237 3237 3236 3237 3237 3236 3234 3233 3232 3232 3231
3181 3183 3184 3184 3185 3187 3190 3192 3194 3197 3200 3203 3206 3209 3210 3212 3214 3217 3219 3219 3219 3220 3222 3224 3225 3226 3228 3230 3229 3228 3229 3230 3231 3232 3231 3231 3231 3230 3229 3228 3227 3226 3226
3176 3177 3177 3177 3178 3180 3182 3184 3187 3190 3193 3196 3198 3201 3203 3205 3207 3209 3209 3211 3211 3213 3215 3216 3218 3219 3221 3221 3221 3222 3221 3223 3223 3223 3222 3222 3223 3223 3223 3222 3222 3221 3219
3169 3170 3172 3173 3173 3175 3176 3178 3180 3182 3184 3187 3190 3193 3195 3198 3199 3200 3201 3202 3203 3204 3205 3207 3209 3211 3213 3213 3213 3212 3212 3215 3214 3213 3213 3213 3214 3214 3215 3215 3215 3215 3213
3162 3163 3165 3167 3168 3170 3172 3173 3173 3175 3177 3179 3182 3185 3187 3188 3190 3190 3191 3192 3194 3195 3195 3197 3199 3199 3200 3202 3203 3204 3205 3205 3205 3203 3202 3203 3204 3205 3206 3206 3205 3204 3204
3153 3155 3157 3158 3160 3162 3164 3166 3168 3168 3169 3170 3173 3176 3178 3181 3181 3181 3183 3184 3184 3184 3185 3187 3189 3190 3191 3190 3192 3192 3193 3193 3194 3193 3193 3194 3195 3196 3196 3196 3197 3197 3195
3145 3146 3148 3149 3151 3153 3154 3156 3158 3160 3161 3162 3164 3165 3166 3169 3171 3171 3172 3173 3174 3174 3176 3177 3179 3180 3182 3184 3184 3185 3185 3184 3184 3184 3184 3184 3185 3185 3185 3186 3186 3187 3186
3136 3138 3139 3140 3141 3142 3143 3145 3147 3150 3152 3152 3153 3154 3155 3157 3159 3159 3161 3161 3162 3163 3165 3166 3167 3170 3172 3174 3175 3175 3175 3175 3173 3175 3174 3173 3173 3173 3174 3175 3175 3176 3175
3127 3128 3129 3130 3131 3132 3133 3134 3136 3138 3139 3141 3143 3144 3146 3147 3149 3149 3148 3149 3150 3151 3153 3155 3156 3157 3161 3163 3165 3165 3166 3165 3163 3164 3164 3165 3165 3164 3163 3163 3164 3165 3166
3117 3118 3119 3119 3120 3121 3122 3122 3123 3127 3127 3129 3132 3133 3134 3137 3138 3138 3139 3140 3140 3139 3140 3142 3143 3146 3148 3152 3153 3155 3155 3156 3156 3153 3153 3156 3157 3160 3159 3155 3153 3154 3156
3108 3108 3107 3108 3109 3109 3109 3109 3109 3111 3113 3114 3116 3119 3121 3124 3126 3126 3128 3129 3130 3130 3131 3130 3131 3133 3135 3138 3141 3143 3145 3144 3144 3143 3145 3146 3140 3142 3150 3149 3145 3144 3146
3100 3098 3097 3096 3096 3096 3096 3096 3097 3096 3097 3099 3102 3105 3107 3109 3110 3112 3114 3116 3117 3119 3121 3121 3121 3120 3121 3123 3126 3129 3131 3132 3132 3131 3132 3135 3135 3136 3138 3139 3135 3136 3137
3092 3089 3087 3085 3084 3083 3081 3080 3081 3082 3082 3082 3085 3089 3092 3093 3093 3096 3098 3101 3104 3107 3108 3109 3111 3109 3109 3110 3112 3115 3116 3118 3119 3119 3119 3120 3120 3119 3120 3122 3124 3126 3128
3081 3079 3077 3074 3072 3069 3068 3066 3065 3064 3064 3066 3067 3071 3076 3075 3077 3079 3082 3086 3089 3093 3094 3096 3098 3098 3098 3099 3099 3102 3104 3104 3107 3109 3108 3107 3107 3105 3109 3109 3112 3114 3116
3071 3067 3065 3063 3060 3057 3054 3051 3050 3049 3048 3048 3050 3053 3058 3057 3059 3061 3063 3065 3074 3078 3079 3081 3084 3086 3087 3087 3087 3088 3089 3091 3095 3095 3096 3097 3097 3090 3078 3094 3098 3098 3101
3062 3057 3053 3049 3046 3043 3040 3037 3035 3033 3033 3033 3034 3035 3038 3041 3043 3046 3049 3053 3056 3059 3063 3065 3068 3072 3074 3075 3075 3076 3077 3079 3081 3082 3083 3085 3086 3082 3082 3075 3089 3080 3087
3055 3049 3045 3038 3033 3028 3025 3022 3020 3018 3017 3018 3019 3020 3021 3024 3026 3028 3033 3037 3039 3042 3045 3050 3053 3056 3059 3062 3063 3064 3065 3067 3069 3070 3071 3072 3075 3077 3080 3081 3081 3080 3080
3048 3043 3037 3030 3023 3018 3014 3010 3007 3005 3003 3002 3003 3005 3006 3008 3009 3012 3015 3019 3022 3025 3029 3032 3037 3041 3044 3047 3050 3051 3052 3053 3055 3057 3059 3060 3062 3066 3068 3068 3068 3067 3070
3042 3036 3029 3022 3015 3009 3003 2999 2995 2992 2990 2989 2988 2989 2991 2993 2994 2997 2999 3002 3005 3009 3013 3017 3021 3025 3030 3032 3035 3038 3039 3040 3042 3045 3047 3048 3050 3052 3053 3057 3056 3058 3059